Flag for U.S.A. Weather past 2 weeks in Talkeetna, Alaska, U.S.A.

Now
40 °F

Sunny.


Feels Like: 34 °F
Forecast: 26 / 38 °F
Wind: 9 mph from Northeast

Location: Talkeetna Weather Reporting Station

Current Time: Oct 21, 2014 at 2:02:40 PM

Latest Report: Oct 21, 2014 at 12:53 PM


Visibility: 10 mi

Pressure: 29.34 "Hg

Humidity: 51%

Dew point: 23 °F

Location of TalkeetnaLocation

Historic Weather in Talkeetna — Graph

°F

Talkeetna temperature yesterday

Maximum temperature yesterday: 35 °F (at 2:53 PM)
Minimum temperature yesterday: 23 °F (at 8:53 AM)
Average temperature yesterday: 30 °F

Past Weeks' High & Low Weather Summary

 TemperatureHumidityPressure
High50 °F (Oct 12, 5:53 PM)97% (Oct 11, 5:53 PM)30.16 "Hg (Oct 11, 5:53 PM)
Low17 °F (Oct 8, 8:53 AM)28% (Oct 7, 3:53 PM)28.93 "Hg (Oct 10, 8:53 AM)
Average35 °F70%29.46 "Hg
* Reported Oct 6 12:53 PM — Oct 21 12:53 PM, Talkeetna, Weather by CustomWeather, © 2014

Note: Actual official high and low records may vary slightly from our data, if they occured in-between our weather recording intervals... More about our weather records

Advertising

Talkeetna weather history for previous 24 hours

 ConditionsComfort  
Time TempWeatherWind HumidityBarometerVisibility
12:53 PM
Oct 21
40 °FSunny.9 mph51%29.34 "Hg10 mi
11:53 AM39 °FSunny.3 mph53%29.35 "Hg10 mi
10:53 AM36 °FSunny.9 mph59%29.35 "Hg10 mi
9:53 AM34 °FClear.8 mph64%29.34 "Hg10 mi
8:53 AM34 °FClear.7 mph67%29.34 "Hg10 mi
7:53 AM33 °FClear.9 mph70%29.34 "Hg10 mi
6:53 AM30 °FClear.5 mph82%29.33 "Hg10 mi
5:53 AM26 °FClear.3 mph88%29.34 "Hg10 mi
4:53 AM28 °FClear.No wind89%29.33 "Hg10 mi
3:53 AM30 °FPassing clouds.No wind89%29.32 "Hg10 mi
2:53 AM32 °FOvercast.5 mph85%29.29 "Hg10 mi
1:53 AM32 °FOvercast.7 mph85%29.27 "Hg10 mi
12:53 AM33 °FOvercast.6 mph82%29.26 "Hg10 mi
11:53 PM
Oct 20
32 °FPassing clouds.5 mph85%29.24 "Hg10 mi
10:53 PM31 °FClear.3 mph85%29.23 "Hg10 mi
9:53 PM32 °FClear.3 mph82%29.22 "Hg10 mi
8:53 PM35 °FOvercast.6 mph75%29.21 "Hg10 mi
7:53 PM33 °FOvercast.6 mph82%29.20 "Hg10 mi
6:53 PM34 °FOvercast.No wind76%29.19 "Hg9 mi
5:53 PM34 °FMore clouds than sun.No wind73%29.17 "Hg10 mi
4:53 PM34 °FMostly cloudy.No wind73%29.14 "Hg10 mi
3:53 PM34 °FLight snow. Overcast.No wind73%29.10 "Hg5 mi
2:53 PM35 °FOvercast.No wind70%29.07 "Hg10 mi
Weather by CustomWeather, © 2014

See weather overviewHow to use our weather pages